Wind_Speed
26 26 25 25 25 24 25 26 26 25 25 24 24 25 24 22 21 21 19 21 22 21 20 20 20 21 22 21 22 23 23 23 23 23 23 24 25 25 25 25 26 25 25 26
28 27 26 26 26 25 25 26 27 27 26 25 24 24 24 23 22 22 21 22 22 23 21 20 21 22 23 23 24 24 24 24 24 25 26 26 26 27 28 28 27 26 27 28
29 28 28 27 26 25 26 26 27 27 26 25 24 25 23 23 23 22 21 23 24 24 23 23 23 24 24 26 25 25 25 25 25 26 27 28 28 28 28 28 28 28 29 29
29 28 29 26 25 24 25 26 27 27 27 26 25 23 23 24 24 25 25 25 24 23 23 25 26 26 26 26 26 26 26 26 26 27 28 29 29 29 29 29 29 30 30 30
28 29 28 27 26 25 25 26 28 28 28 26 26 27 26 25 26 26 26 27 26 25 25 25 26 27 28 28 28 27 27 28 28 28 29 30 30 30 30 30 30 30 31 31
27 28 29 27 27 28 28 29 29 28 27 27 26 27 27 27 26 27 28 27 27 27 27 27 28 28 29 28 29 29 28 29 29 29 30 30 30 31 31 31 31 31 31 32
28 28 28 27 27 28 30 30 29 28 28 28 28 28 28 28 27 27 28 28 29 28 28 29 30 30 30 29 30 29 30 30 30 30 30 30 30 31 31 31 31 31 32 32
27 29 28 28 28 29 28 28 29 29 28 28 28 29 29 29 29 29 28 29 30 30 30 30 31 30 30 30 30 30 30 31 31 31 31 31 30 31 30 31 31 32 32 32
28 28 28 27 28 28 28 28 29 29 28 28 28 29 30 30 29 29 28 29 30 30 30 30 31 30 30 30 30 31 31 31 32 31 31 31 30 30 30 31 31 31 32 32
28 28 28 27 26 26 27 26 27 27 27 27 28 29 29 29 29 29 28 28 30 30 30 30 31 30 30 31 30 30 31 31 31 32 31 31 31 31 31 31 31 31 32 32
28 28 27 27 26 26 26 24 24 24 25 27 28 30 30 31 30 29 29 29 29 30 30 31 31 30 30 30 30 30 30 31 31 31 31 30 31 31 31 31 31 31 31 31
29 29 28 28 27 26 25 25 26 25 26 27 28 29 29 29 29 30 31 31 30 30 31 30 30 31 31 30 30 31 31 30 31 31 30 30 30 31 31 30 31 31 31 31
29 29 28 28 28 28 28 28 28 27 27 27 28 28 28 28 28 30 31 31 30 30 30 30 30 30 31 31 31 30 30 30 30 30 30 30 30 30 30 30 30 30 30 30
29 28 28 28 29 30 29 29 29 29 28 27 26 26 26 27 27 28 29 30 30 30 30 30 29 29 30 30 30 30 30 30 30 29 29 30 30 29 29 29 29 29 29 29
30 30 30 30 31 31 30 30 29 29 29 28 27 27 27 28 30 29 29 30 30 30 30 30 30 30 30 30 31 31 31 30 30 29 30 30 30 29 29 29 29 28 29 29
31 31 32 32 31 31 31 31 31 31 31 30 29 29 29 30 30 29 29 30 30 30 30 30 30 31 31 31 31 31 30 30 30 29 29 30 30 29 29 28 28 28 28 28
31 31 32 31 31 31 31 31 31 30 30 30 29 29 30 30 30 30 30 30 30 30 30 30 30 30 30 30 30 30 30 30 29 29 29 29 29 29 28 28 28 28 28 28
29 30 31 31 31 32 32 32 32 32 31 31 30 30 30 29 29 29 29 29 30 30 30 30 29 29 29 28 29 29 29 29 29 29 29 28 29 28 28 28 28 28 27 27
27 29 29 29 30 31 31 31 31 32 31 30 29 28 28 29 29 29 29 29 29 29 30 30 29 28 29 29 29 29 29 29 29 28 27 27 28 28 29 29 28 27 26 26
26 26 27 27 28 29 30 30 31 31 31 30 29 28 27 28 28 28 29 29 29 29 29 29 28 29 29 29 29 29 30 29 27 27 28 28 28 28 28 27 26 25 25 24
25 25 26 26 27 27 28 28 29 30 30 29 29 29 28 28 28 28 28 29 29 29 29 28 28 28 28 28 29 29 29 28 27 27 27 28 27 26 26 25 25 25 24 24
24 24 24 25 26 27 27 28 29 29 28 28 27 27 27 27 27 28 28 28 28 28 29 28 27 27 28 28 28 28 27 27 27 27 27 26 25 25 24 24 24 24 24 24
22 22 23 23 24 25 26 27 28 27 26 25 26 26 26 26 26 26 26 26 26 26 26 26 26 27 27 27 27 26 26 26 26 26 25 24 24 24 24 24 23 23 23 23
21 21 21 22 22 22 23 24 25 25 25 24 24 24 24 25 25 25 25 24 24 24 24 24 25 25 26 26 26 26 26 26 26 25 24 24 24 24 24 23 23 23 23 22
18 19 20 21 22 22 22 22 22 22 23 23 23 23 24 24 24 24 24 22 22 23 23 23 23 23 23 24 24 24 24 24 24 24 24 24 23 23 23 23 23 23 23 23
16 17 17 18 18 19 20 20 20 20 21 21 21 21 22 22 22 23 23 21 21 21 22 22 22 22 22 22 22 22 22 23 23 24 25 24 24 23 23 24 25 25 24 24
14 14 15 15 16 16 17 17 18 18 18 18 19 19 20 21 21 21 21 20 21 21 22 22 21 21 21 21 21 22 22 23 23 23 23 22 22 22 22 23 23 24 24 23
Wind_Direction
245 247 249 247 250 251 252 254 258 263 265 268 272 274 274 278 283 283 287 288 289 292 293 294 297 299 299 296 295 295 296 295 293 296 299 299 299 300 300 298 299 302 303 302
246 246 249 252 253 255 255 255 259 264 267 269 272 275 276 280 283 284 289 293 293 297 292 293 295 296 296 295 295 295 295 294 294 297 299 299 299 298 298 299 300 302 302 301
246 245 249 251 253 255 256 255 259 263 267 268 271 275 278 279 281 285 286 293 294 294 293 291 292 295 295 297 296 295 294 295 295 295 297 298 298 298 299 299 301 302 301 300
249 247 248 251 251 254 254 255 258 262 265 269 272 274 277 277 280 283 286 292 295 295 293 292 293 294 295 296 296 296 295 294 294 295 296 297 297 297 298 299 300 301 301 299
250 249 248 249 251 254 256 256 258 261 264 269 272 273 275 276 280 284 290 292 292 294 294 294 294 294 294 295 295 295 295 294 293 295 295 295 295 295 296 298 300 300 300 299
250 251 250 250 253 255 257 258 260 262 265 269 272 274 275 277 283 288 289 289 289 292 294 294 294 294 294 294 294 294 293 293 293 295 295 295 294 294 295 297 298 299 299 299
247 250 251 252 251 252 254 257 260 262 265 268 272 273 275 277 282 285 287 289 289 291 293 294 294 294 293 292 292 293 293 294 293 293 294 293 293 294 295 296 298 298 299 300
246 249 251 254 253 255 258 259 261 262 263 266 271 273 275 277 281 282 284 287 289 290 292 293 295 293 292 291 291 292 293 293 293 292 293 294 295 294 295 297 298 299 300 300
248 251 252 255 256 257 260 263 264 264 263 266 270 274 276 279 281 281 283 287 288 290 292 294 295 294 292 291 290 291 293 293 293 292 292 293 294 294 294 296 298 299 299 299
249 250 252 256 260 262 263 265 268 268 268 270 272 275 277 278 280 283 286 288 289 290 291 292 292 292 292 293 289 290 293 293 292 292 293 292 293 294 295 296 297 298 298 298
254 256 259 259 262 265 266 268 272 272 271 274 276 276 278 280 281 283 285 286 287 289 290 290 291 291 291 293 292 292 294 294 293 293 293 294 294 295 296 297 297 297 298 299
254 258 260 261 263 265 267 270 272 272 274 276 277 277 279 279 280 282 284 285 285 286 288 289 289 290 291 293 293 294 294 295 295 295 295 296 296 296 297 299 300 299 300 302
254 256 258 260 263 265 267 270 272 275 276 275 276 276 275 278 281 284 284 283 284 287 288 289 290 291 292 293 293 294 295 295 296 296 297 297 297 298 298 298 299 300 301 302
254 256 258 261 263 266 268 270 271 273 275 274 275 276 276 279 281 284 286 286 287 288 288 290 291 292 293 293 295 296 295 295 296 297 296 297 297 298 298 299 299 300 301 302
254 256 259 262 264 265 268 270 270 272 273 272 275 276 278 280 282 283 286 287 288 288 289 289 289 290 292 293 294 295 295 295 294 295 296 297 297 298 297 298 300 302 303 303
253 256 259 261 263 263 267 267 269 271 270 271 274 276 279 282 282 283 285 286 287 288 288 288 289 291 292 293 293 293 293 294 293 293 294 294 295 296 295 297 300 303 304 303
255 257 260 262 263 263 266 268 270 271 268 270 272 275 279 281 282 283 284 285 286 287 288 288 290 291 293 293 292 292 292 293 293 293 293 293 294 294 294 295 298 301 303 304
258 260 261 262 263 263 265 267 268 270 271 270 271 274 277 280 282 283 284 286 286 287 287 288 289 291 293 293 294 293 294 294 293 294 295 296 294 294 294 295 297 300 301 302
259 260 260 262 263 264 265 266 268 270 272 273 274 276 277 278 280 281 282 284 285 285 286 287 289 290 290 292 293 293 294 295 295 295 295 296 296 295 296 297 297 299 300 300
260 261 261 262 263 264 265 266 267 269 273 276 276 277 278 279 281 282 283 284 285 285 285 287 288 289 290 291 292 293 294 294 295 295 296 296 296 296 297 298 299 300 300 300
261 263 262 263 265 266 267 268 269 271 275 277 278 278 280 281 281 282 284 285 285 286 287 288 290 290 290 291 293 294 294 295 295 296 297 295 295 296 295 296 298 299 299 298
262 263 264 265 267 268 268 269 270 272 274 275 275 276 279 281 282 283 284 285 286 285 287 289 290 292 292 293 294 294 295 296 295 296 296 294 295 297 298 298 298 298 297 296
267 268 268 269 271 272 271 270 271 273 275 275 275 276 279 281 282 284 284 285 286 287 288 290 291 291 291 293 294 294 294 295 295 296 295 294 296 297 297 297 298 298 298 297
270 270 272 273 275 277 277 276 275 275 276 277 278 279 281 282 281 282 283 284 287 289 291 293 294 294 293 294 294 293 294 295 295 294 293 293 294 296 297 297 298 299 299 298
270 271 273 275 276 278 280 279 276 275 276 277 278 281 283 285 284 284 285 286 289 290 292 295 297 298 298 298 297 297 297 296 296 295 293 292 293 294 295 296 296 297 298 298
274 273 275 276 275 277 278 278 277 278 279 279 280 282 286 287 287 287 286 286 289 292 293 295 297 298 298 299 299 299 299 298 296 295 293 292 292 292 292 294 296 296 296 296
275 275 277 279 280 281 281 281 281 280 280 282 284 285 286 287 288 289 288 288 291 293 294 294 295 297 299 301 301 299 299 299 298 298 298 297 294 293 294 295 295 295 295 295
Height
5862 5864 5865 5866 5867 5868 5869 5869 5869 5870 5870 5871 5871 5870 5870 5870 5870 5870 5869 5868 5867 5866 5864 5863 5861 5860 5859 5857 5855 5853 5851 5848 5846 5844 5842 5840 5838 5836 5833 5831 5828 5825 5822 5819
5856 5858 5859 5860 5861 5862 5863 5863 5863 5864 5865 5865 5865 5865 5864 5864 5864 5863 5863 5862 5861 5860 5858 5857 5856 5855 5853 5851 5849 5847 5845 5843 5840 5838 5836 5834 5832 5829 5827 5824 5821 5819 5815 5812
5850 5852 5853 5854 5856 5856 5857 5857 5857 5857 5859 5858 5859 5859 5859 5859 5859 5857 5857 5857 5856 5854 5852 5851 5850 5848 5847 5845 5842 5841 5838 5836 5834 5832 5829 5827 5825 5822 5819 5817 5814 5811 5808 5805
5843 5846 5846 5850 5849 5849 5850 5850 5851 5851 5852 5852 5853 5853 5853 5854 5853 5852 5852 5851 5849 5848 5846 5845 5844 5842 5839 5838 5835 5833 5831 5829 5827 5824 5822 5820 5817 5815 5812 5809 5806 5803 5800 5797
5836 5837 5839 5842 5842 5842 5843 5844 5844 5845 5845 5846 5846 5847 5847 5848 5847 5846 5845 5844 5842 5841 5839 5837 5836 5834 5832 5830 5828 5826 5824 5822 5819 5817 5814 5812 5809 5807 5804 5801 5798 5795 5792 5788
5829 5830 5832 5835 5836 5836 5838 5837 5838 5838 5839 5839 5839 5840 5841 5840 5840 5839 5838 5837 5835 5833 5832 5830 5828 5826 5824 5822 5820 5818 5816 5814 5811 5809 5806 5804 5801 5799 5796 5793 5790 5787 5784 5780
5822 5822 5824 5827 5828 5830 5831 5831 5831 5831 5832 5832 5833 5834 5834 5833 5832 5832 5831 5829 5827 5825 5824 5822 5820 5818 5816 5814 5812 5810 5808 5805 5803 5801 5798 5795 5792 5790 5787 5784 5781 5778 5775 5771
5814 5815 5819 5820 5821 5822 5822 5823 5824 5825 5825 5825 5826 5826 5825 5825 5825 5824 5823 5821 5819 5818 5816 5815 5812 5810 5808 5807 5804 5802 5800 5797 5794 5792 5789 5786 5784 5781 5779 5776 5773 5770 5766 5762
5808 5810 5811 5812 5813 5814 5815 5816 5817 5817 5817 5818 5818 5818 5818 5818 5817 5816 5814 5813 5812 5810 5809 5807 5804 5802 5800 5798 5796 5794 5791 5789 5786 5783 5781 5778 5776 5773 5770 5767 5764 5761 5757 5754
5800 5801 5802 5804 5806 5807 5808 5809 5809 5810 5811 5811 5811 5811 5811 5810 5809 5808 5807 5806 5804 5802 5800 5798 5796 5794 5792 5789 5787 5785 5782 5780 5777 5775 5772 5770 5767 5764 5761 5758 5755 5752 5748 5745
5793 5794 5796 5797 5799 5800 5800 5801 5801 5802 5803 5804 5804 5803 5803 5802 5801 5800 5799 5798 5795 5794 5792 5790 5788 5786 5783 5781 5779 5776 5774 5771 5769 5766 5764 5761 5758 5756 5753 5750 5746 5743 5740 5736
5786 5787 5788 5790 5791 5792 5793 5793 5794 5795 5796 5796 5795 5795 5794 5793 5792 5791 5790 5789 5787 5785 5783 5781 5779 5777 5775 5772 5770 5768 5765 5763 5760 5758 5755 5752 5750 5747 5744 5741 5738 5734 5731 5727
5778 5779 5781 5782 5783 5784 5785 5785 5786 5786 5787 5787 5787 5786 5786 5785 5784 5783 5782 5780 5778 5777 5775 5773 5770 5768 5767 5765 5762 5760 5758 5755 5752 5750 5747 5744 5741 5738 5735 5733 5729 5725 5722 5719
5770 5772 5773 5774 5775 5776 5776 5776 5777 5778 5778 5778 5778 5778 5777 5776 5775 5774 5773 5771 5770 5768 5767 5764 5762 5760 5758 5756 5754 5752 5749 5747 5744 5741 5738 5736 5733 5730 5727 5724 5721 5718 5714 5711
5763 5764 5765 5766 5767 5768 5768 5768 5768 5769 5769 5769 5769 5769 5768 5768 5767 5766 5764 5763 5761 5759 5758 5756 5755 5752 5750 5748 5745 5743 5741 5738 5736 5733 5730 5728 5725 5722 5719 5716 5713 5710 5706 5703
5755 5756 5757 5758 5758 5759 5760 5760 5760 5760 5760 5760 5760 5760 5760 5759 5758 5756 5755 5754 5753 5751 5750 5748 5746 5744 5741 5739 5737 5734 5732 5730 5727 5725 5722 5719 5716 5713 5711 5708 5705 5701 5698 5695
5747 5748 5749 5750 5750 5751 5752 5752 5752 5752 5751 5752 5752 5751 5751 5750 5749 5748 5747 5746 5744 5742 5741 5739 5737 5734 5732 5730 5728 5725 5723 5721 5718 5716 5713 5710 5708 5705 5702 5700 5697 5693 5690 5687
5739 5740 5741 5742 5742 5743 5743 5743 5744 5743 5743 5742 5743 5742 5742 5741 5741 5740 5738 5737 5735 5734 5732 5729 5727 5725 5723 5721 5719 5717 5715 5712 5709 5707 5704 5702 5699 5697 5694 5691 5688 5686 5682 5679
5731 5732 5732 5733 5734 5735 5735 5735 5735 5735 5735 5735 5734 5734 5733 5733 5732 5731 5730 5728 5727 5725 5723 5721 5719 5717 5715 5713 5711 5709 5706 5704 5701 5699 5696 5693 5691 5688 5686 5683 5680 5677 5674 5671
5723 5724 5724 5725 5726 5726 5726 5726 5726 5726 5725 5725 5725 5725 5724 5723 5723 5722 5721 5719 5718 5716 5714 5711 5710 5708 5706 5704 5702 5700 5698 5695 5693 5690 5688 5685 5683 5680 5677 5675 5672 5669 5666 5664
5716 5716 5717 5717 5717 5717 5718 5717 5717 5717 5717 5716 5716 5716 5715 5715 5714 5713 5712 5710 5709 5707 5705 5703 5701 5699 5697 5696 5694 5691 5689 5686 5684 5682 5679 5677 5674 5672 5669 5667 5664 5662 5659 5656
5709 5709 5709 5709 5709 5710 5710 5709 5709 5709 5709 5708 5707 5707 5707 5706 5705 5704 5703 5701 5700 5698 5696 5695 5693 5691 5689 5687 5685 5683 5680 5678 5676 5674 5671 5669 5666 5664 5662 5659 5657 5654 5652 5649
5701 5702 5702 5702 5702 5702 5701 5701 5701 5701 5700 5700 5700 5699 5699 5698 5697 5696 5694 5693 5692 5691 5689 5687 5685 5682 5680 5678 5676 5674 5672 5670 5668 5665 5663 5661 5658 5656 5654 5652 5649 5647 5644 5642
5695 5696 5695 5695 5694 5694 5694 5693 5692 5692 5692 5692 5691 5691 5691 5690 5689 5688 5686 5685 5685 5683 5681 5679 5677 5674 5672 5670 5668 5666 5664 5662 5659 5657 5655 5653 5651 5649 5646 5644 5642 5639 5637 5634
5689 5689 5689 5688 5687 5687 5687 5686 5685 5685 5685 5684 5684 5684 5684 5683 5682 5681 5680 5678 5677 5675 5673 5671 5669 5667 5665 5662 5660 5657 5655 5653 5651 5649 5647 5645 5643 5641 5639 5637 5634 5632 5630 5627
5684 5683 5683 5682 5682 5681 5680 5680 5679 5678 5678 5678 5678 5677 5677 5675 5674 5673 5672 5671 5669 5668 5666 5664 5662 5660 5658 5655 5653 5650 5648 5646 5644 5641 5639 5637 5635 5633 5631 5629 5627 5624 5622 5619
5679 5679 5678 5678 5677 5676 5675 5674 5673 5673 5672 5672 5671 5671 5670 5669 5668 5667 5665 5664 5662 5661 5659 5657 5655 5653 5651 5648 5646 5643 5641 5639 5636 5633 5631 5629 5626 5625 5623 5621 5618 5616 5614 5612